Theta_e
331 329 326 325 325 323 322 319 315 312 310 305 303 303 302 299 297 297 298 298 299 299 298 297 297 297 296 296 295 295 294 294 294 294 292 291 291 289 288 287 286 285 284
331 330 328 325 323 320 317 316 312 309 308 304 304 303 300 299 298 297 297 297 299 299 297 297 297 296 296 296 295 295 294 294 293 293 292 291 290 289 287 286 285 284 284
327 325 324 321 317 314 314 312 310 309 306 304 302 300 299 299 297 297 297 296 299 298 297 297 297 296 296 295 295 294 293 293 292 291 291 290 289 288 287 286 285 284 284
321 320 319 317 316 316 313 310 308 306 304 302 300 299 298 297 297 296 295 296 297 298 297 296 296 296 296 295 294 294 293 292 292 291 290 289 288 287 286 286 285 284 284
318 318 316 314 312 310 308 307 305 305 301 300 298 297 297 297 295 297 297 296 296 297 296 296 296 296 295 294 293 293 293 292 291 290 290 288 288 287 287 286 284 284 284
314 312 310 308 305 304 302 300 298 297 297 297 298 297 296 296 297 296 296 296 296 295 295 295 295 295 294 293 293 292 291 291 291 290 289 288 287 287 286 285 284 284 285
310 308 306 304 301 299 298 297 296 298 297 297 297 297 297 297 298 296 296 295 293 294 294 294 294 294 294 293 293 292 290 288 287 288 288 287 287 286 285 283 283 284 284
306 304 303 302 300 299 299 299 297 297 297 297 298 297 299 298 296 296 294 291 292 292 292 292 293 293 293 293 292 292 291 290 288 286 286 286 286 285 284 283 283 283 283
304 303 302 301 301 301 300 299 300 300 299 300 298 297 296 296 296 293 291 291 291 292 292 291 292 292 292 292 292 291 291 290 289 287 286 285 284 283 282 281 282 283 283
302 302 301 301 301 301 300 298 298 297 297 296 296 295 294 294 293 292 291 291 291 291 291 291 291 290 290 291 290 290 291 290 289 288 285 283 283 283 281 281 282 283 283
301 300 299 297 296 296 296 295 295 294 294 294 294 293 293 293 292 291 290 289 291 291 291 291 291 291 290 289 289 288 289 290 290 288 287 286 285 284 283 283 283 283 283
296 295 295 293 292 292 293 293 292 292 292 292 292 292 292 292 292 291 290 289 288 288 290 290 291 291 290 289 288 287 287 287 288 287 286 286 285 284 284 284 283 283 282
293 293 293 292 292 292 292 292 292 292 291 291 290 290 289 288 287 286 286 286 286 287 288 288 287 288 288 288 287 287 287 287 286 286 287 286 286 285 285 284 283 282 282
293 292 292 290 291 290 289 288 287 287 287 286 286 286 286 286 286 283 282 282 283 284 285 286 286 287 287 287 288 287 286 286 287 287 286 286 285 285 284 283 283 283 282
291 289 288 287 286 286 285 285 284 284 282 283 283 283 283 283 281 279 280 280 280 280 281 283 285 286 287 288 287 286 286 286 287 286 286 286 285 285 284 284 283 283 282
287 286 284 285 285 284 284 284 282 281 279 280 279 279 280 279 277 277 278 278 279 280 283 284 285 286 287 288 288 287 286 286 286 287 286 286 286 285 284 284 283 282 283
284 283 283 283 283 282 282 282 282 282 280 279 278 277 277 275 275 276 276 277 279 280 281 282 285 287 287 288 288 287 286 286 285 285 285 285 285 285 284 284 283 282 282
281 280 282 282 281 281 280 280 280 280 280 279 278 276 275 273 273 275 275 277 278 279 279 279 280 281 282 283 287 287 286 286 285 286 286 285 285 285 285 284 283 283 282
281 280 280 280 279 278 278 278 278 278 278 278 277 276 275 272 273 274 274 276 275 276 276 277 277 277 279 279 280 287 286 286 285 285 285 284 284 285 285 284 283 283 282
278 275 277 278 277 277 277 277 276 276 276 276 275 274 272 271 274 274 274 274 274 274 274 274 275 275 276 276 278 279 282 285 285 285 285 284 284 284 284 283 283 283 281
278 276 274 276 276 275 275 275 274 274 274 274 274 272 268 269 272 272 272 272 272 272 272 272 272 273 274 274 275 275 277 280 284 284 284 284 283 284 284 284 283 282 282
275 274 274 274 274 273 272 272 272 272 272 272 272 271 269 271 271 270 271 270 270 270 270 270 270 271 272 272 272 272 274 276 279 280 283 283 282 283 283 283 283 282 282
273 273 273 272 271 270 271 271 271 270 270 270 270 270 269 269 269 269 269 269 269 268 268 268 269 269 270 270 271 271 271 273 275 276 278 280 282 283 283 283 283 282 282
271 271 271 271 270 270 270 269 269 268 268 268 268 268 268 268 268 268 268 268 267 267 267 267 267 267 268 268 269 270 270 271 272 272 274 277 280 282 283 283 282 282 282
270 270 270 270 269 269 269 268 268 268 267 267 267 267 267 267 267 267 266 266 266 266 266 265 266 267 267 267 267 268 269 269 269 270 272 276 278 282 282 283 283 282 282
270 269 269 269 268 268 267 267 267 266 266 266 265 266 265 265 265 265 265 265 265 264 264 265 265 265 265 266 267 268 267 269 271 271 272 274 277 281 282 282 282 282 281
Wind_Speed
19 20 17 17 17 17 19 19 20 22 25 26 26 23 22 22 19 14 12 9 8 11 12 12 12 12 13 14 14 15 16 16 16 21 18 17 15 18 20 21 22 24 24
15 16 15 13 11 13 14 14 14 17 24 21 23 23 24 18 15 17 13 9 7 13 15 16 16 15 15 16 17 17 18 18 19 21 20 20 20 17 20 21 21 22 23
11 10 10 9 9 10 13 14 16 18 19 18 19 17 13 12 15 13 10 7 17 16 18 19 20 20 19 18 18 19 18 19 19 19 21 20 20 18 20 20 20 21 21
8 7 7 7 8 8 8 9 12 12 14 17 18 16 15 13 13 8 11 20 20 19 20 22 23 23 22 20 21 20 19 20 20 20 20 20 19 18 18 20 20 19 21
8 7 6 6 6 6 6 7 8 10 12 15 15 18 15 14 12 16 17 18 19 20 21 22 23 25 25 24 23 21 19 20 19 19 20 19 19 17 17 18 19 19 20
9 10 9 9 9 9 9 9 10 12 14 18 14 14 15 15 15 19 23 22 19 22 23 22 22 24 26 29 28 26 24 21 21 20 20 20 20 18 17 18 17 18 17
13 12 11 11 11 12 12 13 14 13 13 13 13 13 14 15 21 22 24 17 20 22 22 23 23 23 22 24 24 25 27 27 27 24 22 22 20 18 17 18 17 18 20
15 14 13 13 14 13 13 12 11 10 8 8 9 11 13 13 18 18 17 18 21 23 23 23 24 25 25 24 24 25 23 24 23 23 24 23 20 18 16 17 17 20 21
17 16 16 15 14 12 10 8 5 4 4 5 6 11 14 15 13 17 16 18 21 22 22 23 23 24 25 25 25 27 26 26 26 26 27 23 23 23 22 17 17 17 18
18 17 14 12 10 8 5 3 1 2 3 4 6 9 12 14 15 17 19 19 22 24 24 24 23 24 26 26 26 26 28 28 26 25 20 23 25 22 20 18 18 19 18
15 14 12 11 10 7 5 3 2 3 4 6 8 10 11 13 16 18 21 19 21 25 27 27 26 24 26 27 27 28 30 27 24 25 21 22 19 18 19 19 19 19 18
15 13 10 9 7 5 4 4 4 5 6 8 10 12 12 13 15 17 20 24 24 24 28 29 30 29 29 30 26 26 29 30 25 23 20 23 21 19 19 18 18 18 18
13 11 10 8 6 5 5 5 5 6 7 10 11 13 14 15 17 20 21 24 26 28 28 30 33 32 35 34 31 28 25 23 26 22 24 24 21 20 17 15 15 16 18
12 10 8 7 5 5 4 4 5 7 8 10 12 13 15 16 17 18 23 27 29 31 30 29 30 33 31 31 26 23 24 25 23 25 25 23 18 15 16 15 15 15 15
10 8 7 6 5 4 5 4 5 5 6 8 10 12 14 15 15 21 22 26 29 33 34 30 29 27 25 23 21 19 19 20 21 22 22 21 18 17 17 15 15 14 15
9 7 6 5 5 4 4 2 6 6 7 5 7 10 11 13 21 23 23 26 30 31 23 22 24 25 25 25 19 13 14 15 17 18 20 19 18 19 17 15 14 15 14
9 7 5 5 4 4 4 4 5 5 7 5 7 10 10 18 24 24 25 28 23 25 20 23 23 21 21 20 15 12 13 14 16 16 17 20 19 18 17 16 15 14 14
9 9 5 4 4 4 4 4 5 6 8 9 9 11 12 18 22 21 23 23 21 20 21 22 23 24 23 28 19 14 14 14 14 15 16 17 20 19 16 15 17 15 13
6 5 5 4 4 3 3 4 5 6 8 10 12 12 14 19 17 16 18 17 19 20 21 21 22 23 24 25 31 15 16 13 13 15 15 17 19 19 17 16 16 13 11
7 6 4 3 3 3 4 5 6 7 8 9 11 13 16 19 17 17 17 17 18 19 20 21 22 22 23 22 23 24 20 11 11 13 15 16 19 19 17 17 16 13 12
5 3 3 3 3 4 4 5 6 7 8 10 11 12 14 15 16 16 17 16 17 19 20 21 22 22 22 21 20 20 19 21 12 9 10 12 16 18 17 16 16 15 12
5 3 2 2 2 3 4 5 6 7 9 11 12 13 14 14 15 16 17 17 17 18 18 20 21 21 21 21 21 20 18 17 18 15 13 10 13 16 16 17 16 14 13
4 3 1 1 3 3 4 5 6 8 10 11 13 14 14 15 16 17 18 18 18 19 19 20 21 22 20 20 20 19 19 18 17 17 17 17 12 16 17 18 18 16 15
3 2 2 2 3 4 5 6 7 8 10 12 13 14 14 15 16 17 18 18 19 19 19 21 22 22 22 23 21 20 19 18 18 20 19 18 16 16 17 17 18 18 15
1 1 2 3 4 5 6 7 8 10 11 12 13 14 15 16 17 17 17 18 19 20 22 24 21 22 23 24 25 23 22 21 22 19 17 17 17 16 18 18 18 17 17
3 3 4 4 5 5 6 8 9 10 12 13 14 15 15 16 17 17 18 18 19 23 24 22 23 24 25 24 21 21 23 22 20 17 16 15 15 14 17 18 19 18 18
Wind_Direction
206 206 210 215 219 216 214 218 212 207 209 201 198 197 200 201 199 199 201 206 221 291 259 250 254 258 261 265 266 270 272 269 262 277 285 288 279 279 284 289 291 294 295
203 204 214 216 215 212 216 216 212 209 216 205 203 201 204 192 194 192 201 207 310 280 255 256 257 259 258 263 264 268 270 270 273 280 287 289 285 281 286 288 290 292 294
190 193 197 198 190 204 215 223 222 219 208 203 200 202 192 199 193 199 195 257 291 281 268 264 261 258 258 262 265 265 269 271 268 274 282 285 284 282 281 285 289 292 293
162 169 171 178 187 192 191 198 196 195 189 189 190 198 204 199 181 166 230 257 288 280 271 266 261 256 257 261 263 263 266 270 272 273 277 283 281 282 282 283 289 295 298
130 126 129 139 142 148 148 159 166 174 175 177 176 190 185 179 189 227 243 266 287 281 277 271 262 255 253 252 258 263 264 266 269 272 277 278 279 280 283 293 291 295 298
106 108 112 114 115 116 121 128 146 157 162 173 162 182 186 203 231 236 249 277 279 279 277 275 269 262 257 249 245 248 252 265 263 268 273 276 278 278 284 286 288 294 296
104 104 107 111 110 110 116 123 138 134 163 179 199 196 206 245 258 255 268 272 279 279 280 279 276 269 257 255 254 253 249 245 246 258 266 268 274 276 283 281 281 288 294
101 104 107 108 107 108 109 114 127 143 169 180 211 250 262 258 262 272 272 274 280 280 280 279 276 273 266 256 255 250 249 250 245 247 248 259 264 268 270 273 281 285 287
105 105 107 109 109 110 112 122 139 172 225 252 259 268 273 279 275 278 275 284 281 281 282 279 276 274 270 264 248 253 254 255 253 246 242 244 246 254 261 265 272 277 287
103 102 103 102 102 103 108 119 209 269 276 275 276 275 275 277 277 279 287 286 282 282 283 281 279 274 272 263 250 249 255 258 254 246 244 248 248 254 254 244 260 268 282
105 103 99 96 90 90 88 78 30 339 312 298 293 294 290 288 289 290 294 293 289 289 285 282 279 280 279 278 265 252 251 259 262 251 247 246 240 240 242 239 248 257 274
108 101 97 95 91 80 63 34 5 341 321 312 310 308 306 305 307 312 316 313 307 299 293 284 279 281 279 277 275 261 259 253 254 248 229 238 238 236 243 246 250 256 265
114 110 104 94 80 59 40 16 355 340 331 326 321 320 318 318 316 317 318 317 313 306 296 292 292 294 283 275 275 269 258 249 246 237 233 229 230 236 243 244 248 258 267
117 108 99 84 79 50 37 18 3 354 345 335 329 326 323 323 325 339 326 318 313 308 302 298 298 291 288 272 262 255 253 248 247 238 238 235 225 227 233 238 247 253 265
113 105 96 85 67 59 42 26 29 27 7 344 338 331 330 327 330 328 328 327 322 311 297 289 286 285 277 265 250 242 248 253 246 237 234 230 217 217 228 233 238 249 263
115 103 87 82 68 51 35 27 349 359 3 4 347 354 332 327 330 330 328 327 328 330 308 287 286 280 279 271 242 233 242 247 251 250 236 227 224 223 223 226 231 241 258
112 107 100 84 72 53 31 7 344 341 348 337 342 342 339 332 337 336 333 330 330 341 341 348 338 300 300 279 245 234 249 249 249 246 243 237 227 223 212 220 225 232 252
101 99 94 84 66 48 24 2 347 342 333 331 332 336 337 337 337 336 337 338 338 341 344 342 338 337 333 330 278 256 254 251 251 248 243 234 227 221 210 213 228 229 244
102 91 88 81 66 46 17 2 352 342 333 329 330 331 335 334 335 336 341 342 337 334 333 334 336 337 334 333 339 263 249 248 244 245 240 238 227 212 210 214 225 223 229
88 82 80 74 55 27 10 359 348 340 335 334 330 331 332 339 341 341 340 335 331 330 329 328 327 329 331 334 337 340 342 271 255 255 245 245 229 214 209 211 215 212 217
95 78 72 45 34 17 3 352 342 336 332 327 324 327 332 332 330 332 330 330 327 326 325 324 324 323 324 328 332 334 333 329 322 276 267 253 243 214 205 208 208 214 223
87 78 59 36 10 3 356 348 341 335 329 324 322 324 330 329 326 325 323 323 322 321 321 318 318 318 318 319 321 323 323 321 324 331 312 258 251 221 202 203 202 202 213
78 69 51 10 0 352 346 343 340 335 326 321 322 324 326 324 322 320 318 319 320 320 319 317 315 313 313 313 313 312 312 312 311 314 309 308 256 226 204 200 202 204 207
64 41 16 352 341 343 337 335 334 328 322 320 320 319 319 317 316 315 315 317 318 317 315 313 311 308 308 309 308 306 304 303 304 303 302 295 283 233 208 199 203 206 206
14 350 335 334 326 323 326 331 328 323 320 318 316 314 314 313 313 314 315 316 317 317 313 313 310 307 308 306 303 302 300 298 300 298 297 290 289 244 213 201 200 200 199
312 312 313 316 314 317 321 321 321 319 316 313 311 310 311 311 311 312 314 317 317 315 315 312 310 309 308 309 307 301 300 302 301 299 299 292 286 250 218 206 198 196 194